User: anonymous   Login
Location: Oshawa
(43.9000°N, 78.8670°W)
Time: 16:47:04
(UTC-05:00)
Language:

SPOT 5 - Orbit

View from above orbital plane
View from above orbital plane
View from above satellite
View from above satellite

Ground track
Ground track

The orbit data is extracted from the following two-line orbital elements,

1 27421U 02021A   16038.40802324  .00000153  00000-0  45334-4 0  9994
2 27421  98.4768  93.2137 0136385  45.2265 315.9931 14.51757147713739
Epoch (UTC): 07 February 2016 09:47:33
Eccentricity: 0.0136385
inclination: 98.4768°
perigee height: 623 km
apogee height: 817 km
right ascension of ascending node: 93.2137°
argument of perigee: 45.2265°
revolutions per day: 14.51757147
mean anomaly at epoch: 315.9931°
orbit number at epoch: 71373

The dashed part of the orbit path shows where the satellite is in the earth's shadow,  

DLR